Logo
Deadmoon Tribe


News | Standings | Raids | Events | Item Values | Item History | Summary | Stats
Register | Login

Deadmoon Tribe: Agruk
Earned: 20245.00 Spent: 13531.00 Adjustment: 586.00 Current: 7300.00
Last 30 Days: 0% of raids Last 60 Days: 0% of raids Last 90 Days: 0% of raids Lifetime (10/02/05 - 05/10/11): 36% of raids

Raid Attendance History
Date Name Note Earned Current
05/10/11 Throne of the Four Winds Cata #25 [Tazzomax] (Al'Akir #1) 500.00 20245.00
05/03/11 Blackwing Descent Cata #24 [Tazzomax] 500.00 19745.00
04/28/11 Blackwing Descent Cata #23 [Tazzomax] (H. Halfus #1) 500.00 19245.00
04/21/11 Blackwing Descent Cata #21 [Tazzomax] 480.00 18745.00
04/21/11 Blackwing Descent Cata #22 [Tazzomax] (Nef #1, Grats!) 550.00 18265.00
04/07/11 Bastion of Twilight Cata #20 [Tazzomax] 450.00 17715.00
04/05/11 Blackwing Descent Cata #19 [Tazzomax] 440.00 17265.00
03/22/11 Blackwing Descent Cata #18 [Muggus] 475.00 16825.00
03/10/11 Bastion of Twilight Cata #17 [Muggus] 300.00 16350.00
03/08/11 Blackwing Descent Cata #16 [Tazzomax] 420.00 16050.00
03/03/11 Bastion of Twilight Cata #15 [Tazzomax] 440.00 15630.00
03/01/11 Blackwing Descent Cata #14 [Tazzomax] 420.00 15190.00
02/22/11 Blackwing Descent Cata #13 [Tazzomax] 440.00 14770.00
02/15/11 Blackwing Descent Cata #12 [Detriment] (Chimaeron #1) 450.00 14330.00
02/10/11 Bastion of Twilight Cata #11 [Tazzomax] (Council #1, Cho'gall #1) 480.00 13880.00
04/28/10 World Boss VoA / Weekly [Tazzomax] 80.00 13400.00
04/21/10 Icecrown Citadel ICC #37 [Detriment] 320.00 13320.00
04/15/10 Ulduar Ulduar #X [Tazzomax] 150.00 13000.00
04/14/10 Icecrown Citadel ICC #36 [Muggus] 300.00 12850.00
04/08/10 Icecrown Citadel ICC #35 [Tazzomax] 350.00 12550.00
04/07/10 Icecrown Citadel ICC #34 [Grimbear] - Sindragosa #1 350.00 12200.00
04/07/10 Icecrown Citadel ICC #33 [Tazzomax] 300.00 11850.00
03/31/10 Icecrown Citadel ICC #32 [Tazzomax] 325.00 11550.00
03/25/10 Icecrown Citadel ICC Scrap, TY 75.00 11225.00
02/18/10 Icecrown Citadel ICC #23 [Tazzomax] 300.00 11150.00
02/16/10 Icecrown Citadel ICC #22 [Muggus] 300.00 10850.00
02/11/10 Icecrown Citadel ICC #20 [Tazzomax] 290.00 10550.00
02/09/10 Icecrown Citadel ICC #19 [Quenlill] 280.00 10260.00
02/02/10 Icecrown Citadel ICC #16 [Tazzomax] 300.00 9980.00
01/28/10 Icecrown Citadel ICC #15 [Tazzomax] 280.00 9680.00
05/21/08 Black Temple BT #16 (Tazzomax) 85.00 9400.00
05/20/08 Mount Hyjal Hyjal #18 (Tazzomax) 80.00 9315.00
05/15/08 Black Temple BT #15 [Tazzomax] (RoS #1) 105.00 9235.00
05/14/08 Black Temple BT #14 [Tazzomax] 95.00 9130.00
05/13/08 Black Temple BT #13 [Tazzomax] 115.00 9035.00
05/07/08 Black Temple BT #12 [Tazzomax] 85.00 8920.00
05/06/08 Mount Hyjal Hyjal #17 [Tazzomax] Full clear/BT Naj'entus 135.00 8835.00
05/01/08 Black Temple BT #12 [Tazzomax] 90.00 8700.00
04/30/08 Mount Hyjal Hyjal #16 [Darksilver] 100.00 8610.00
04/29/08 Black Temple BT #11 [Tazzomax] 100.00 8510.00
04/23/08 Black Temple BT #10 [Tazzomax] 105.00 8410.00
04/22/08 Mount Hyjal Hyjal #15 [Tazzomax] 100.00 8305.00
04/17/08 Black Temple BT #9 [Tazzomax] (Bloodboil #1) 115.00 8205.00
04/16/08 Mount Hyjal Hyjal #14 [Tazzomax] (Arch #1 >Grats!<) 135.00 8090.00
04/15/08 Mount Hyjal Hyjal #13 [Tazzomax] 100.00 7955.00
04/10/08 Black Temple BT #8 [Tazzomax] 90.00 7855.00
04/09/08 Mount Hyjal Hyjal #12 [Tazzomax] (Arch Work) 105.00 7765.00
04/08/08 Mount Hyjal Hyjal #11 [Tazzomax] 100.00 7660.00
04/03/08 Mount Hyjal Hyjal #10 [Tazzomax] (Arch Work) 95.00 7560.00
04/02/08 Black Temple BT #7 [Nosfotorius] 80.00 7465.00
04/01/08 Mount Hyjal Hyjal #9 [Tazzomax] 95.00 7385.00
03/27/08 Mount Hyjal Hyjal #8 [Tazzomax] (Azgalor #1) 95.00 7290.00
03/26/08 Mount Hyjal Hyjal #7 [Tazzomax] 90.00 7195.00
03/25/08 Black Temple BT #5 [Tazzomax] 80.00 7105.00
03/20/08 Mount Hyjal Hyjal #6 [Tazzomax] 85.00 7025.00
03/19/08 Black Temple BT #4 [Tazzomax] (Gorefiend #1) 95.00 6940.00
03/18/08 Black Temple BT #3 [Tazzomax] 90.00 6845.00
03/13/08 Mount Hyjal Hyjal #5 [Tazzomax] 40.00 6755.00
03/12/08 Black Temple BT #2 [Tazzomax] (Akama #1) 95.00 6715.00
03/11/08 Black Temple BT #1 [Tazzomax] (Naj'entus #1, Supremus #1) 95.00 6620.00
03/11/08 Mount Hyjal TK #26 / Hyjal #4 [Tazzomax] (Kael, MHx3, Az At) 95.00 6525.00
03/06/08 Serpentshrine Cavern SSC #38 / TK #25 [Tazzomax] (Vashj + Kael At) 70.00 6430.00
03/05/08 Tempest Keep TK #25 [Tazzomax] 70.00 6360.00
03/04/08 Serpentshrine Cavern SSC #38 [Tazzomax] 70.00 6290.00
02/07/08 Serpentshrine Cavern SSC #36 [Tazzomax] (6/6) 95.00 6220.00
02/05/08 Tempest Keep TK #19 [Tazzomax] 70.00 6125.00
01/31/08 Tempest Keep TK #18 [Tazzomax] (Kael Work) 90.00 6055.00
01/30/08 Tempest Keep TK #17 [Tazzomax] (Kael Work) 85.00 5965.00
01/29/08 Tempest Keep TK #16 [Tazzomax] 70.00 5880.00
01/24/08 Tempest Keep TK #15 [Tazzomax] 70.00 5810.00
01/23/08 Serpentshrine Cavern SSC #35 [Tazzomax] 65.00 5740.00
01/22/08 Serpentshrine Cavern SSC #34 [Tazzomax] 70.00 5675.00
01/17/08 Gruuls Lair GL/Mag[Nosfotorius] 50.00 5605.00
01/15/08 Tempest Keep TK #14 [Squeake] 55.00 5555.00
01/10/08 Serpentshrine Cavern SSC #33 [Tazzomax] (Vashj #1 >Grats!<) 100.00 5500.00
01/09/08 Serpentshrine Cavern SSC #32 [Tazzomax] (Vashj Work) 90.00 5400.00
01/08/08 Serpentshrine Cavern SSC #31 [Tazzomax] 90.00 5310.00
01/03/08 Tempest Keep TK #13 [Tazzomax] 50.00 5220.00
12/05/07 Serpentshrine Cavern SSC #25 / GL #27 [Tazzomax] 95.00 5170.00
11/27/07 Serpentshrine Cavern SSC #24 [Tazzomax] 75.00 5075.00
11/15/07 Serpentshrine Cavern SSC #23 [Tazzomax] (Leotheras #1) 70.00 5000.00
11/14/07 Serpentshrine Cavern SSC #22 [Tazzomax] 70.00 4930.00
11/12/07 Serpentshrine Cavern SSC #21 [Colphaer] 30.00 4860.00
11/08/07 Serpentshrine Cavern SSC #20 [Tazzomax] 70.00 4830.00
11/07/07 Serpentshrine Cavern SSC #19 [Tazzomax] 60.00 4760.00
11/01/07 Serpentshrine Cavern SSC #17 [Tazzomax] (Karathress #1) 110.00 4700.00
10/29/07 Serpentshrine Cavern SSC #16 [Tazzomax] 70.00 4590.00
10/24/07 Serpentshrine Cavern SSC #14 [Tazzomax] (Tidewalker #1) 80.00 4520.00
10/22/07 Serpentshrine Cavern SSC #13 [Tazzomax] 60.00 4440.00
10/18/07 Serpentshrine Cavern SSC #12 / GL #26 [Tazzomax] 90.00 4380.00
10/10/07 Tempest Keep TK #8 [Tazzomax] 50.00 4290.00
05/24/07 Magtheridon Magtheridon #1 [Tazzomax] 40.00 4240.00
04/15/07 Gruuls Lair GL #5 [Tazzomax] 35.00 4200.00
03/26/07 Gruuls Lair GL #2 (Maulgar #1) [Tazzomax] 45.00 4165.00
01/10/07 Temple of Ahn-Qiraj AQ-40 #32 (T.E., 2x DKP) [Darksilver] 150.00 4120.00
01/09/07 Temple of Ahn-Qiraj AQ-40 #31 (Sk, Srt, Fank, Huhu) [Darksilver] 140.00 3970.00
01/07/07 Blackwing Lair BWL #67 (RG-Chrom [Grn/Bnz], Nef [Bnz/Blk]) [Darksilver] 90.00 3830.00
01/03/07 Temple of Ahn-Qiraj AQ-40 #30 (T.E. At.) [Darksilver] 130.00 3740.00
01/02/07 Temple of Ahn-Qiraj AQ-40 #29 (Sk - Huhu) [Darksilver] 90.00 3610.00
12/07/06 Blackwing Lair BWL #65 (RG-FG) [Darksilver] 35.00 3520.00
... found 221 attended raid(s) / 100 per page

Item Purchase History
Date Name Raid Spent Current
04/28/11 H. Book of Binding Will Blackwing Descent 900.00 13531.00
04/21/11 Einhorn's Galoshes Blackwing Descent 500.00 12631.00
04/07/11 Mantle of the Forlorn Conqueror Bastion of Twilight 1100.00 12131.00
04/05/11 Bell of Enraging Resonance Blackwing Descent 500.00 11031.00
03/08/11 Incineratus Blackwing Descent 900.00 10531.00
02/15/11 Power Generator Hood Blackwing Descent 350.00 9631.00
02/10/11 Theralion's Mirror Bastion of Twilight 400.00 9281.00
04/14/10 Nightmare Ender Icecrown Citadel 300.00 8881.00
04/07/10 Sanctified Dark Coven Gloves Icecrown Citadel 650.00 8581.00
04/07/10 Gladiator's Felweave Trousers Icecrown Citadel 50.00 7931.00
04/07/10 Loop of the Endless Labyrinth Icecrown Citadel 200.00 7881.00
03/31/10 Ring of Maddening Whispers Icecrown Citadel 250.00 7681.00
02/16/10 Nibelung Icecrown Citadel 800.00 7431.00
05/21/08 Leggings of Channeled Elements Mount Hyjal 500.00 6631.00
04/17/08 Focused Mana Bindings Black Temple 250.00 6131.00
04/03/08 Night's End Mount Hyjal 0.00 5881.00
03/25/08 Slippers of the Seacaller Black Temple 320.00 5881.00
03/12/08 Blind-Seers Icon Black Temple 202.00 5561.00
03/11/08 Maelstrom's Fury Black Temple 451.00 5359.00
03/11/08 Nethervoid Cloak Mount Hyjal 211.00 4908.00
03/05/08 Pauldrons of the Vanquished Hero Tempest Keep 250.00 4697.00
01/24/08 Mantle of the Elven Kings Tempest Keep 150.00 4447.00
01/08/08 Gloves of the Vanquished Hero Serpentshrine Cavern 250.00 4297.00
11/27/07 Robe of Hateful Echoes Serpentshrine Cavern 201.00 4047.00
11/27/07 Cord of Screaming Terrors Serpentshrine Cavern 362.00 3846.00
11/08/07 Illidari Shoulderpads Serpentshrine Cavern 257.00 3484.00
11/07/07 Fathomstone Serpentshrine Cavern 150.00 3227.00
10/24/07 Boots of Shifting Nightmare Serpentshrine Cavern 150.00 3077.00
12/07/06 Nemesis Bracers Blackwing Lair 100.00 2927.00
12/06/06 Qiraji Bindings of Dominance Temple of Ahn-Qiraj 100.00 2827.00
10/29/06 Head of Nefarian Blackwing Lair 150.00 2727.00
10/22/06 Band of Dark Dominion Blackwing Lair 125.00 2577.00
10/08/06 Ebony Flame Gloves Blackwing Lair 125.00 2452.00
10/08/06 Nemesis Spaulders Blackwing Lair 100.00 2327.00
10/08/06 Nemesis Robes Blackwing Lair 100.00 2227.00
09/09/06 Choker of the Firelord Molten Core (Farm) 330.00 2127.00
06/14/06 Claw of Chromaggus Blackwing Lair 385.00 1797.00
05/24/06 Nemesis Belt Blackwing Lair 100.00 1412.00
05/14/06 Onyxia-Hide Bag Onyxia 46.00 1312.00
04/24/06 Nemesis Skullcap Onyxia 100.00 1266.00
04/12/06 Onyxia-Hide Bag Molten Core (Farm) 47.00 1166.00
03/29/06 Talisman of Emphemeral Power Molten Core (Farm) 111.00 1119.00
03/14/06 Felheart Horns Molten Core (Farm) 50.00 1008.00
03/14/06 Choker of Enlightenment Molten Core (Farm) 75.00 958.00
01/29/06 Nemesis Leggings Molten Core 100.00 883.00
01/29/06 Fireproof Cloak Molten Core 101.00 783.00
01/18/06 Gutgore Ripper Molten Core 51.00 682.00
01/08/06 Sash of Whispered Secrets Molten Core 76.00 631.00
12/28/05 Felheart Robes Molten Core 50.00 555.00
12/18/05 Felheart Gloves Molten Core 50.00 505.00
12/18/05 Azuresong Mageblade Molten Core 102.00 455.00
11/13/05 Felheart Bracers Molten Core 50.00 353.00
11/13/05 Felheart Slippers Molten Core 50.00 303.00
11/13/05 Seal of the Archmagus Molten Core 103.00 253.00
10/26/05 Felheart Belt Molten Core 50.00 150.00
10/19/05 Felheart Mantle Molten Core 50.00 100.00
... found 56 purchased item(s) / 100 per page

Individual Adjustment History
Date Reason Adjustment
03/22/11 Partial Attendance -150.00
02/08/11 Cata #10 Partial 250.00
02/03/11 Partial BWD/BoT #6 365.00
02/08/10 ICC Scrap ATT Bonus, Thanks 30.00
12/03/06 BWL #64 No-Show 0.00
11/29/06 AQ-40 #26 On-Time 15.00
11/28/06 AQ-40 #25 Late -10.00
11/08/06 AQ-40 #22 Ontime 15.00
11/07/06 AQ-40 #21 Signup -5.00
09/24/06 AQ-40 #9 Signup -5.00
05/31/06 BWL #23 OnT 10.00
04/25/06 MC #68 LE -5.00
03/15/06 MC #56 No Rag / LE -10.00
03/12/06 BWL #8 Ontime 10.00
01/08/06 MC #36 Ontime 5.00
12/28/05 MC #34 Ontime 5.00
12/14/05 MC #31 / Ony #3 (Stay Bonus) 5.00
12/11/05 MC #30 Ontime 5.00
11/13/05 MC #23 Ontime 5.00
11/06/05 MC #21, Ontime Bonus 5.00
10/30/05 MC #19 Ontime / Signup Bonus 2.00
10/26/05 MC #18 Ontime / Signup Bonus 2.00
10/23/05 MC #17, (Shaz atpt, 1hr OT) 4.00
10/23/05 MC #17, (Geddon + .5hr OT) 6.00
10/19/05 MC #16, OT Bonus 2.00
10/16/05 MC #15, Ontime / Signup Bonus 2.00
10/12/05 MC #14, Gol. Atpt. + 1 hr OT 5.00
10/12/05 MC #14, Ontime / Signup Bonus 2.00
10/09/05 MC #13, Ontime / Signup Bonus 2.00
10/09/05 MC #13, 0.5 hrs OT 1.00
10/02/05 MC #11, Ontime Bonus 2.00
10/02/05 MC #11, 1hr OT + Geddon Kill Bonus 7.00
... found 32 individual adjustment(s)

Attendance by Event
Event Percent
Bastion of Twilight
4 (44%)
Black Temple
16 (29%)
Blackwing Descent
10 (63%)
Blackwing Lair
45 (69%)
Icecrown Citadel
13 (20%)
Magtheridon
1 (8%)
Molten Core
23 (72%)
Molten Core (Farm)
18 (43%)
Mount Hyjal
15 (65%)
Onyxia
17 (38%)
Onyxia (Pre-Farm)
3 (60%)
Serpentshrine Cavern
20 (51%)
Tempest Keep
9 (41%)
Temple of Ahn-Qiraj
19 (63%)
Throne of the Four Winds
1 (100%)
Ulduar
1 (2%)
World Boss
3 (60%)
 

Powered by EQdkp 1.3.2
© 2003 The EQdkp Project Team